Location: Austin
(30.3000°N, 97.7500°W)
Time: 03:04:25
(UTC-05:00)

Cosmos 1680 Rocket - Pass Details

Date: 01 October 2024
Orbit: 756 x 779 km, 74.1° (Epoch: 06 October)

Event Time Altitude Azimuth Distance (km) Brightness Sun altitude
Rises 20:17:18 0° 189° (S) 3,230 6.8 -14.2°
Reaches altitude 10° 20:19:40 10° 186° (S) 2,310 6.0 -14.7°
Maximum altitude 20:24:53 70° 104° (ESE) 825 3.4 -15.8°
Drops below altitude 10° 20:30:09 10° 21° (NNE) 2,331 5.8 -16.9°
Sets 20:32:33 0° 19° (NNE) 3,263 6.6 -17.4°
